Regional Weather Roundup
Issued by NWS

Home | Current Version | Previous Version | Text Only | Print | Product List | Glossary On
Versions: 1 2 3 4 5 6 7 8 9 10 11 12 13 14 15 16 17 18 19 20 21 22 23 24 25 26 27 28 29 30 31 32 33 34 35 36 37 38 39 40 41 42 43 44 45 46 47 48 49 50
000
ASUS46 KPQR 311010
RWROR

OREGON REGIONAL WEATHER ROUNDUP
NATIONAL WEATHER SERVICE PORTLAND OR
300 AM PDT SUN AUG 31 2014

NOTE: "FAIR" INDICATES FEW OR NO CLOUDS BELOW 12,000 FEET WITH
NO SIGNIFICANT WEATHER AND/OR OBSTRUCTIONS TO VISIBILITY.

ORZ001>013-311100-
NORTHWEST OREGON


CITY           SKY/WX    TMP DP  RH WIND       PRES   REMARKS
ASTORIA        MOCLDY    57  55  93 CALM      30.02S
NEWPORT        CLOUDY    55  55 100 CALM      30.08R
PORTLAND       CLOUDY    60  55  83 SE3       30.04R
VANCOUVER WA   CLOUDY    60  53  77 CALM      30.04R
SCAPPOOSE      CLOUDY    58  53  84 CALM      30.03S
HILLSBORO      CLOUDY    55  52  89 N6        30.03S
AURORA         CLOUDY    57  55  93 S3        30.05R
MCMINNVILLE    CLOUDY    58  55  90 W3        30.05R
SALEM          CLOUDY    58  55  90 S5        30.04R
CORVALLIS      CLOUDY    54  52  94 W3        30.06S
EUGENE         FAIR      53  50  89 S3        30.06R
$$

ORZ021-028-311100-
SOUTHWEST OREGON


CITY           SKY/WX    TMP DP  RH WIND       PRES   REMARKS
NORTH BEND     CLOUDY    57  57 100 S6        30.07R VSB 3/4
BROOKINGS      FAIR      55  54  97 CALM      30.02R
ROSEBURG       FAIR      56  51  84 CALM      30.06S
SEXTON SUMMIT  FAIR      48  47  96 N10       30.08S
MEDFORD        FAIR      63  50  62 N3        30.03S
$$

ORZ009-041-311100-
COLUMBIA GORGE


CITY           SKY/WX    TMP DP  RH WIND       PRES   REMARKS
TROUTDALE      CLOUDY    58  55  90 E3        30.03R
THE DALLES     FAIR      61  46  57 W12       29.98R
$$

ORZ029>031-042>050-061>064-311100-
EASTERN OREGON


CITY           SKY/WX    TMP DP  RH WIND       PRES   REMARKS
REDMOND        CLOUDY    50  44  80 S5        30.04S
BEND           FAIR      45  39  81 SW5       30.07R
KLAMATH FALLS  FAIR      45  41  86 CALM      30.05F
LAKEVIEW       FAIR      45  37  76 NW8       30.09S
HERMISTON      FAIR      58  46  64 SW13      29.95R
PENDLETON      FAIR      58  42  55 SW12      29.98R
JOHN DAY       CLOUDY    53  51  92 W5        30.04S
MEACHAM        LGT RAIN  50  48  93 CALM      30.03R
LA GRANDE      FAIR      55  41  58 CALM      30.00S
BAKER CITY     MOCLDY    45  43  93 SW5       30.02R
BURNS          FAIR      41  39  93 SW9       30.06R
ROME             N/A     49  43  80 SE8       30.04R
ONTARIO        FAIR      54  48  80 SW8       29.98R
$$


USA.gov is the U.S. government's official web portal to all federal, state and local government web resources and services.